Year,Month,Day,Hour,Minute,Value (Times are PST for temperature in C)
2010,08,13,00,00,9.20
2010,08,13,00,01,9.20
2010,08,13,00,02,9.20
2010,08,13,00,03,9.20
2010,08,13,00,04,9.20
2010,08,13,00,05,9.20
2010,08,13,00,06,9.20
2010,08,13,00,07,9.20
2010,08,13,00,08,9.30
2010,08,13,00,09,9.30
2010,08,13,00,10,9.30
2010,08,13,00,11,9.30
2010,08,13,00,12,9.30
2010,08,13,00,13,9.30
2010,08,13,00,14,9.30
2010,08,13,00,15,9.30
2010,08,13,00,16,9.30
2010,08,13,00,17,9.30
2010,08,13,00,18,9.20
2010,08,13,00,19,9.20
2010,08,13,00,20,9.20
2010,08,13,00,21,9.20
2010,08,13,00,22,9.20
2010,08,13,00,23,9.20
2010,08,13,00,24,9.20
2010,08,13,00,25,9.20
2010,08,13,00,26,9.20
2010,08,13,00,27,9.20
2010,08,13,00,28,9.20
2010,08,13,00,29,9.20
2010,08,13,00,30,9.20
2010,08,13,00,31,9.20
2010,08,13,00,32,9.20
2010,08,13,00,33,9.20
2010,08,13,00,34,9.20
2010,08,13,00,35,9.20
2010,08,13,00,36,9.20
2010,08,13,00,37,9.20
2010,08,13,00,38,9.20
2010,08,13,00,39,9.20
2010,08,13,00,40,9.10
2010,08,13,00,41,9.10
2010,08,13,00,42,9.10
2010,08,13,00,43,9.10
2010,08,13,00,44,9.20
2010,08,13,00,45,9.20
2010,08,13,00,46,9.20
2010,08,13,00,47,9.20
2010,08,13,00,48,9.20
2010,08,13,00,49,9.20
2010,08,13,00,50,9.10
2010,08,13,00,51,9.10
2010,08,13,00,52,9.10
2010,08,13,00,53,9.10
2010,08,13,00,54,9.10
2010,08,13,00,55,9.10
2010,08,13,00,56,9.10
2010,08,13,00,57,9.10
2010,08,13,00,58,9.10
2010,08,13,00,59,9.10
2010,08,13,01,00,9.20
2010,08,13,01,01,9.20
2010,08,13,01,02,9.20
2010,08,13,01,03,9.20
2010,08,13,01,04,9.20
2010,08,13,01,05,9.30
2010,08,13,01,06,9.40
2010,08,13,01,07,9.40
2010,08,13,01,08,9.50
2010,08,13,01,09,9.50
2010,08,13,01,10,9.60
2010,08,13,01,11,9.60
2010,08,13,01,12,9.60
2010,08,13,01,13,9.60
2010,08,13,01,14,9.60
2010,08,13,01,15,9.60
2010,08,13,01,16,9.60
2010,08,13,01,17,9.50
2010,08,13,01,18,9.50
2010,08,13,01,19,9.50
2010,08,13,01,20,9.50
2010,08,13,01,21,9.40
2010,08,13,01,22,9.40
2010,08,13,01,23,9.40
2010,08,13,01,24,9.40
2010,08,13,01,25,9.40
2010,08,13,01,26,9.40
2010,08,13,01,27,9.40
2010,08,13,01,28,9.40
2010,08,13,01,29,9.40
2010,08,13,01,30,9.40
2010,08,13,01,31,9.30
2010,08,13,01,32,9.30
2010,08,13,01,33,9.30
2010,08,13,01,34,9.20
2010,08,13,01,35,9.20
2010,08,13,01,36,9.20
2010,08,13,01,37,9.20
2010,08,13,01,38,9.20
2010,08,13,01,39,9.20
2010,08,13,01,40,9.20
2010,08,13,01,41,9.20
2010,08,13,01,42,9.20
2010,08,13,01,43,9.20
2010,08,13,01,44,9.20
2010,08,13,01,45,9.20
2010,08,13,01,46,9.20
2010,08,13,01,47,9.20
2010,08,13,01,48,9.20
2010,08,13,01,49,9.20
2010,08,13,01,50,9.20
2010,08,13,01,51,9.20
2010,08,13,01,52,9.20
2010,08,13,01,53,9.20
2010,08,13,01,54,9.20
2010,08,13,01,55,9.20
2010,08,13,01,56,9.30
2010,08,13,01,57,9.30
2010,08,13,01,58,9.30
2010,08,13,01,59,9.30
2010,08,13,02,00,9.30
2010,08,13,02,01,9.30
2010,08,13,02,02,9.30
2010,08,13,02,03,9.30
2010,08,13,02,04,9.30
2010,08,13,02,05,9.30
2010,08,13,02,06,9.30
2010,08,13,02,07,9.30
2010,08,13,02,08,9.30
2010,08,13,02,09,9.30
2010,08,13,02,10,9.30
2010,08,13,02,11,9.30
2010,08,13,02,12,9.20
2010,08,13,02,13,9.20
2010,08,13,02,14,9.20
2010,08,13,02,15,9.20
2010,08,13,02,16,9.20
2010,08,13,02,17,9.20
2010,08,13,02,18,9.20
2010,08,13,02,19,9.20
2010,08,13,02,20,9.20
2010,08,13,02,21,9.20
2010,08,13,02,22,9.20
2010,08,13,02,23,9.20
2010,08,13,02,24,9.20
2010,08,13,02,25,9.20
2010,08,13,02,26,9.20
2010,08,13,02,27,9.20
2010,08,13,02,28,9.20
2010,08,13,02,29,9.30
2010,08,13,02,30,9.40
2010,08,13,02,31,9.40
2010,08,13,02,32,9.50
2010,08,13,02,33,9.50
2010,08,13,02,34,9.60
2010,08,13,02,35,9.70
2010,08,13,02,36,9.70
2010,08,13,02,37,9.70
2010,08,13,02,38,9.80
2010,08,13,02,39,9.80
2010,08,13,02,40,9.80
2010,08,13,02,41,9.80
2010,08,13,02,42,9.80
2010,08,13,02,43,9.80
2010,08,13,02,44,9.90
2010,08,13,02,45,9.90
2010,08,13,02,46,9.90
2010,08,13,02,47,9.90
2010,08,13,02,48,9.90
2010,08,13,02,49,10.00
2010,08,13,02,50,10.10
2010,08,13,02,51,10.10
2010,08,13,02,52,10.10
2010,08,13,02,53,10.10
2010,08,13,02,54,10.10
2010,08,13,02,55,10.10
2010,08,13,02,56,10.10
2010,08,13,02,57,10.10
2010,08,13,02,58,10.10
2010,08,13,02,59,10.10
2010,08,13,03,00,10.10
2010,08,13,03,01,10.20
2010,08,13,03,02,10.30
2010,08,13,03,03,10.40
2010,08,13,03,04,10.40
2010,08,13,03,05,10.40
2010,08,13,03,06,10.50
2010,08,13,03,07,10.60
2010,08,13,03,08,10.60
2010,08,13,03,09,10.60
2010,08,13,03,10,10.60
2010,08,13,03,11,10.60
2010,08,13,03,12,10.60
2010,08,13,03,13,10.60
2010,08,13,03,14,10.40
2010,08,13,03,15,10.40
2010,08,13,03,16,10.40
2010,08,13,03,17,10.40
2010,08,13,03,18,10.40
2010,08,13,03,19,10.40
2010,08,13,03,20,10.40
2010,08,13,03,21,10.40
2010,08,13,03,22,10.40
2010,08,13,03,23,10.40
2010,08,13,03,24,10.40
2010,08,13,03,25,10.40
2010,08,13,03,26,10.40
2010,08,13,03,27,10.40
2010,08,13,03,28,10.40
2010,08,13,03,29,10.40
2010,08,13,03,30,10.40
2010,08,13,03,31,10.40
2010,08,13,03,32,10.40
2010,08,13,03,33,10.40
2010,08,13,03,34,10.40
2010,08,13,03,35,10.40
2010,08,13,03,36,10.40
2010,08,13,03,37,10.40
2010,08,13,03,38,10.40
2010,08,13,03,39,10.40
2010,08,13,03,40,10.40
2010,08,13,03,41,10.40
2010,08,13,03,42,10.40
2010,08,13,03,43,10.40
2010,08,13,03,44,10.40
2010,08,13,03,45,10.40
2010,08,13,03,46,10.40
2010,08,13,03,47,10.40
2010,08,13,03,48,10.40
2010,08,13,03,49,10.40
2010,08,13,03,50,10.40
2010,08,13,03,51,10.40
2010,08,13,03,52,10.40
2010,08,13,03,53,10.40
2010,08,13,03,54,10.40
2010,08,13,03,55,10.40
2010,08,13,03,56,10.40
2010,08,13,03,57,10.40
2010,08,13,03,58,10.30
2010,08,13,03,59,10.20
2010,08,13,04,00,10.00
2010,08,13,04,01,9.80
2010,08,13,04,02,9.70
2010,08,13,04,03,9.70
2010,08,13,04,04,9.70
2010,08,13,04,05,9.60
2010,08,13,04,06,9.60
2010,08,13,04,07,9.50
2010,08,13,04,08,9.50
2010,08,13,04,09,9.60
2010,08,13,04,10,9.70
2010,08,13,04,11,9.70
2010,08,13,04,12,9.80
2010,08,13,04,13,9.90
2010,08,13,04,14,9.90
2010,08,13,04,15,10.00
2010,08,13,04,16,10.10
2010,08,13,04,17,10.10
2010,08,13,04,18,10.20
2010,08,13,04,19,10.30
2010,08,13,04,20,10.30
2010,08,13,04,21,10.40
2010,08,13,04,22,10.50
2010,08,13,04,23,10.60
2010,08,13,04,24,10.70
2010,08,13,04,25,10.80
2010,08,13,04,26,10.90
2010,08,13,04,27,10.90
2010,08,13,04,28,11.00
2010,08,13,04,29,11.10
2010,08,13,04,30,11.10
2010,08,13,04,31,11.20
2010,08,13,04,32,11.20
2010,08,13,04,33,11.30
2010,08,13,04,34,11.30
2010,08,13,04,35,11.40
2010,08,13,04,36,11.40
2010,08,13,04,37,11.50
2010,08,13,04,38,11.60
2010,08,13,04,39,11.60
2010,08,13,04,40,11.60
2010,08,13,04,41,11.60
2010,08,13,04,42,11.60
2010,08,13,04,43,11.60
2010,08,13,04,44,11.60
2010,08,13,04,45,11.50
2010,08,13,04,46,11.40
2010,08,13,04,47,11.30
2010,08,13,04,48,11.30
2010,08,13,04,49,11.20
2010,08,13,04,50,11.20
2010,08,13,04,51,11.20
2010,08,13,04,52,11.30
2010,08,13,04,53,11.40
2010,08,13,04,54,11.40
2010,08,13,04,55,11.40
2010,08,13,04,56,11.40
2010,08,13,04,57,11.30
2010,08,13,04,58,11.30
2010,08,13,04,59,11.30
2010,08,13,05,00,11.20
2010,08,13,05,01,11.20
2010,08,13,05,02,11.20
2010,08,13,05,03,11.10
2010,08,13,05,04,11.10
2010,08,13,05,05,11.10
2010,08,13,05,06,11.20
2010,08,13,05,07,11.30
2010,08,13,05,08,11.60
2010,08,13,05,09,11.80
2010,08,13,05,10,11.90
2010,08,13,05,11,12.10
2010,08,13,05,12,12.10
2010,08,13,05,13,12.10
2010,08,13,05,14,11.90
2010,08,13,05,15,11.80
2010,08,13,05,16,11.80
2010,08,13,05,17,11.80
2010,08,13,05,18,11.70
2010,08,13,05,19,11.60
2010,08,13,05,20,11.60
2010,08,13,05,21,11.60
2010,08,13,05,22,11.70
2010,08,13,05,23,11.70
2010,08,13,05,24,11.80
2010,08,13,05,25,11.90
2010,08,13,05,26,11.90
2010,08,13,05,27,11.90
2010,08,13,05,28,12.00
2010,08,13,05,29,12.00
2010,08,13,05,30,12.00
2010,08,13,05,31,11.80
2010,08,13,05,32,11.70
2010,08,13,05,33,11.70
2010,08,13,05,34,11.60
2010,08,13,05,35,11.60
2010,08,13,05,36,11.60
2010,08,13,05,37,11.60
2010,08,13,05,38,11.70
2010,08,13,05,39,11.80
2010,08,13,05,40,11.80
2010,08,13,05,41,11.90
2010,08,13,05,42,12.00
2010,08,13,05,43,12.00
2010,08,13,05,44,12.00
2010,08,13,05,45,12.00
2010,08,13,05,46,12.00
2010,08,13,05,47,12.00
2010,08,13,05,48,12.00
2010,08,13,05,49,12.00
2010,08,13,05,50,12.00
2010,08,13,05,51,12.10
2010,08,13,05,52,12.10
2010,08,13,05,53,12.10
2010,08,13,05,54,12.10
2010,08,13,05,55,12.10
2010,08,13,05,56,12.20
2010,08,13,05,57,12.20
2010,08,13,05,58,12.20
2010,08,13,05,59,12.30
2010,08,13,06,00,12.30
2010,08,13,06,01,12.30
2010,08,13,06,02,12.30
2010,08,13,06,03,12.30
2010,08,13,06,04,12.30
2010,08,13,06,05,12.30
2010,08,13,06,06,12.20
2010,08,13,06,07,12.20
2010,08,13,06,08,12.10
2010,08,13,06,09,12.10
2010,08,13,06,10,12.10
2010,08,13,06,11,12.20
2010,08,13,06,12,12.20
2010,08,13,06,13,12.20
2010,08,13,06,14,12.10
2010,08,13,06,15,12.00
2010,08,13,06,16,12.00
2010,08,13,06,17,12.00
2010,08,13,06,18,12.00
2010,08,13,06,19,12.00
2010,08,13,06,20,12.00
2010,08,13,06,21,12.00
2010,08,13,06,22,12.00
2010,08,13,06,23,12.00
2010,08,13,06,24,12.10
2010,08,13,06,25,12.10
2010,08,13,06,26,12.20
2010,08,13,06,27,12.20
2010,08,13,06,28,12.20
2010,08,13,06,29,12.10
2010,08,13,06,30,12.00
2010,08,13,06,31,12.00
2010,08,13,06,32,12.00
2010,08,13,06,33,12.00
2010,08,13,06,34,12.00
2010,08,13,06,35,12.00
2010,08,13,06,36,12.10
2010,08,13,06,37,12.30
2010,08,13,06,38,12.40
2010,08,13,06,39,12.40
2010,08,13,06,40,12.50
2010,08,13,06,41,12.60
2010,08,13,06,42,12.60
2010,08,13,06,43,12.60
2010,08,13,06,44,12.60
2010,08,13,06,45,12.50
2010,08,13,06,46,12.50
2010,08,13,06,47,12.40
2010,08,13,06,48,12.40
2010,08,13,06,49,12.40
2010,08,13,06,50,12.50
2010,08,13,06,51,12.50
2010,08,13,06,52,12.60
2010,08,13,06,53,12.60
2010,08,13,06,54,12.70
2010,08,13,06,55,12.70
2010,08,13,06,56,12.80
2010,08,13,06,57,12.90
2010,08,13,06,58,12.90
2010,08,13,06,59,13.00
2010,08,13,07,00,13.00
2010,08,13,07,01,13.00
2010,08,13,07,02,13.00
2010,08,13,07,03,13.00
2010,08,13,07,04,13.00
2010,08,13,07,05,13.00
2010,08,13,07,06,13.00
2010,08,13,07,07,13.00
2010,08,13,07,08,13.10
2010,08,13,07,09,13.10
2010,08,13,07,10,13.10
2010,08,13,07,11,13.20
2010,08,13,07,12,13.30
2010,08,13,07,13,13.50
2010,08,13,07,14,13.60
2010,08,13,07,15,13.70
2010,08,13,07,16,13.80
2010,08,13,07,17,13.90
2010,08,13,07,18,14.10
2010,08,13,07,19,14.20
2010,08,13,07,20,14.20
2010,08,13,07,21,14.30
2010,08,13,07,22,14.40
2010,08,13,07,23,14.50
2010,08,13,07,24,14.50
2010,08,13,07,25,14.60
2010,08,13,07,26,14.70
2010,08,13,07,27,14.80
2010,08,13,07,28,15.00
2010,08,13,07,29,15.00
2010,08,13,07,30,15.10
2010,08,13,07,31,15.30
2010,08,13,07,32,15.30
2010,08,13,07,33,15.40
2010,08,13,07,34,15.50
2010,08,13,07,35,15.50
2010,08,13,07,36,15.60
2010,08,13,07,37,15.60
2010,08,13,07,38,15.60
2010,08,13,07,39,15.80
2010,08,13,07,40,15.80
2010,08,13,07,41,15.90
2010,08,13,07,42,16.10
2010,08,13,07,43,16.10
2010,08,13,07,44,16.20
2010,08,13,07,45,16.30
2010,08,13,07,46,16.40
2010,08,13,07,47,16.50
2010,08,13,07,48,16.60
2010,08,13,07,49,16.70
2010,08,13,07,50,16.90
2010,08,13,07,51,17.00
2010,08,13,07,52,17.10
2010,08,13,07,53,17.20
2010,08,13,07,54,17.30
2010,08,13,07,55,17.30
2010,08,13,07,56,17.40
2010,08,13,07,57,17.50
2010,08,13,07,58,17.50
2010,08,13,07,59,17.60
2010,08,13,08,00,17.60
2010,08,13,08,01,17.70
2010,08,13,08,02,17.70
2010,08,13,08,03,17.80
2010,08,13,08,04,17.90
2010,08,13,08,05,17.90
2010,08,13,08,06,17.90
2010,08,13,08,07,17.90
2010,08,13,08,08,18.00
2010,08,13,08,09,18.10
2010,08,13,08,10,18.20
2010,08,13,08,11,18.20
2010,08,13,08,12,18.20
2010,08,13,08,13,18.20
2010,08,13,08,14,18.20
2010,08,13,08,15,18.30
2010,08,13,08,16,18.30
2010,08,13,08,17,18.40
2010,08,13,08,18,18.40
2010,08,13,08,19,18.50
2010,08,13,08,20,18.60
2010,08,13,08,21,18.60
2010,08,13,08,22,18.70
2010,08,13,08,23,18.70
2010,08,13,08,24,18.80
2010,08,13,08,25,18.80
2010,08,13,08,26,18.90
2010,08,13,08,27,18.90
2010,08,13,08,28,18.90
2010,08,13,08,29,19.00
2010,08,13,08,30,19.10
2010,08,13,08,31,19.10
2010,08,13,08,32,19.10
2010,08,13,08,33,19.20
2010,08,13,08,34,19.30
2010,08,13,08,35,19.30
2010,08,13,08,36,19.40
2010,08,13,08,37,19.40
2010,08,13,08,38,19.40
2010,08,13,08,39,19.50
2010,08,13,08,40,19.50
2010,08,13,08,41,19.50
2010,08,13,08,42,19.50
2010,08,13,08,43,19.50
2010,08,13,08,44,19.50
2010,08,13,08,45,19.60
2010,08,13,08,46,19.50
2010,08,13,08,47,19.50
2010,08,13,08,48,19.50
2010,08,13,08,49,19.50
2010,08,13,08,50,19.50
2010,08,13,08,51,19.60
2010,08,13,08,52,19.60
2010,08,13,08,53,19.60
2010,08,13,08,54,19.60
2010,08,13,08,55,19.60
2010,08,13,08,56,19.60
2010,08,13,08,57,19.60
2010,08,13,08,58,19.60
2010,08,13,08,59,19.70
2010,08,13,09,00,19.80
2010,08,13,09,01,19.80
2010,08,13,09,02,19.90
2010,08,13,09,03,19.90
2010,08,13,09,04,20.00
2010,08,13,09,05,20.10
2010,08,13,09,06,20.20
2010,08,13,09,07,20.20
2010,08,13,09,08,20.20
2010,08,13,09,09,20.20
2010,08,13,09,10,20.20
2010,08,13,09,11,20.20
2010,08,13,09,12,20.20
2010,08,13,09,13,20.20
2010,08,13,09,14,20.20
2010,08,13,09,15,20.20
2010,08,13,09,16,20.20
2010,08,13,09,17,20.30
2010,08,13,09,18,20.40
2010,08,13,09,19,20.50
2010,08,13,09,20,20.50
2010,08,13,09,21,20.60
2010,08,13,09,22,20.60
2010,08,13,09,23,20.60
2010,08,13,09,24,20.50
2010,08,13,09,25,20.50
2010,08,13,09,26,20.50
2010,08,13,09,27,20.50
2010,08,13,09,28,20.50
2010,08,13,09,29,20.50
2010,08,13,09,30,20.60
2010,08,13,09,31,20.60
2010,08,13,09,32,20.70
2010,08,13,09,33,20.70
2010,08,13,09,34,20.80
2010,08,13,09,35,20.80
2010,08,13,09,36,20.90
2010,08,13,09,37,21.00
2010,08,13,09,38,21.10
2010,08,13,09,39,21.20
2010,08,13,09,40,21.20
2010,08,13,09,41,21.20
2010,08,13,09,42,21.30
2010,08,13,09,43,21.30
2010,08,13,09,44,21.40
2010,08,13,09,45,21.40
2010,08,13,09,46,21.40
2010,08,13,09,47,21.40
2010,08,13,09,48,21.40
2010,08,13,09,49,21.50
2010,08,13,09,50,21.60
2010,08,13,09,51,21.60
2010,08,13,09,52,21.60
2010,08,13,09,53,21.60
2010,08,13,09,54,21.70
2010,08,13,09,55,21.80
2010,08,13,09,56,21.80
2010,08,13,09,57,21.90
2010,08,13,09,58,21.90
2010,08,13,09,59,21.90
2010,08,13,10,00,21.90
2010,08,13,10,01,21.90
2010,08,13,10,02,21.90
2010,08,13,10,03,21.90
2010,08,13,10,04,22.00
2010,08,13,10,05,22.00
2010,08,13,10,06,22.10
2010,08,13,10,07,22.10
2010,08,13,10,08,22.10
2010,08,13,10,09,22.10
2010,08,13,10,10,22.10
2010,08,13,10,11,22.10
2010,08,13,10,12,22.10
2010,08,13,10,13,22.20
2010,08,13,10,14,22.20
2010,08,13,10,15,22.20
2010,08,13,10,16,22.30
2010,08,13,10,17,22.30
2010,08,13,10,18,22.40
2010,08,13,10,19,22.50
2010,08,13,10,20,22.70
2010,08,13,10,21,22.80
2010,08,13,10,22,22.90
2010,08,13,10,23,22.90
2010,08,13,10,24,23.10
2010,08,13,10,25,23.10
2010,08,13,10,26,23.10
2010,08,13,10,27,23.10
2010,08,13,10,28,23.10
2010,08,13,10,29,23.10
2010,08,13,10,30,23.10
2010,08,13,10,31,23.20
2010,08,13,10,32,23.20
2010,08,13,10,33,23.20
2010,08,13,10,34,23.20
2010,08,13,10,35,23.30
2010,08,13,10,36,23.30
2010,08,13,10,37,23.40
2010,08,13,10,38,23.50
2010,08,13,10,39,23.60
2010,08,13,10,40,23.60
2010,08,13,10,41,23.50
2010,08,13,10,42,23.40
2010,08,13,10,43,23.30
2010,08,13,10,44,23.30
2010,08,13,10,45,23.30
2010,08,13,10,46,23.30
2010,08,13,10,47,23.30
2010,08,13,10,48,23.30
2010,08,13,10,49,23.30
2010,08,13,10,50,23.30
2010,08,13,10,51,23.40
2010,08,13,10,52,23.40
2010,08,13,10,53,23.50
2010,08,13,10,54,23.60
2010,08,13,10,55,23.60
2010,08,13,10,56,23.60
2010,08,13,10,57,23.50
2010,08,13,10,58,23.40
2010,08,13,10,59,23.40
2010,08,13,11,00,23.30
2010,08,13,11,01,23.30
2010,08,13,11,02,23.30
2010,08,13,11,03,23.30
2010,08,13,11,04,23.20
2010,08,13,11,05,23.30
2010,08,13,11,06,23.30
2010,08,13,11,07,23.40
2010,08,13,11,08,23.40
2010,08,13,11,09,23.40
2010,08,13,11,10,23.40
2010,08,13,11,11,23.50
2010,08,13,11,12,23.70
2010,08,13,11,13,23.80
2010,08,13,11,14,23.90
2010,08,13,11,15,24.10
2010,08,13,11,16,24.30
2010,08,13,11,17,24.50
2010,08,13,11,18,24.60
2010,08,13,11,19,24.70
2010,08,13,11,20,24.70
2010,08,13,11,21,24.80
2010,08,13,11,22,24.90
2010,08,13,11,23,25.00
2010,08,13,11,24,25.10
2010,08,13,11,25,25.10
2010,08,13,11,26,25.20
2010,08,13,11,27,25.30
2010,08,13,11,28,25.40
2010,08,13,11,29,25.40
2010,08,13,11,30,25.40
2010,08,13,11,31,25.40
2010,08,13,11,32,25.30
2010,08,13,11,33,25.40
2010,08,13,11,34,25.40
2010,08,13,11,35,25.30
2010,08,13,11,36,25.30
2010,08,13,11,37,25.30
2010,08,13,11,38,25.30
2010,08,13,11,39,25.30
2010,08,13,11,40,25.30
2010,08,13,11,41,25.30
2010,08,13,11,42,25.40
2010,08,13,11,43,25.30
2010,08,13,11,44,25.30
2010,08,13,11,45,25.30
2010,08,13,11,46,25.20
2010,08,13,11,47,25.10
2010,08,13,11,48,25.10
2010,08,13,11,49,25.10
2010,08,13,11,50,25.10
2010,08,13,11,51,24.90
2010,08,13,11,52,24.80
2010,08,13,11,53,24.60
2010,08,13,11,54,24.60
2010,08,13,11,55,24.60
2010,08,13,11,56,24.60
2010,08,13,11,57,24.60
2010,08,13,11,58,24.60
2010,08,13,11,59,24.70
2010,08,13,12,00,24.60
2010,08,13,12,01,24.60
2010,08,13,12,02,24.40
2010,08,13,12,03,24.30
2010,08,13,12,04,24.20
2010,08,13,12,05,24.10
2010,08,13,12,06,24.10
2010,08,13,12,07,24.10
2010,08,13,12,08,24.10
2010,08,13,12,09,24.10
2010,08,13,12,10,24.10
2010,08,13,12,11,24.10
2010,08,13,12,12,24.10
2010,08,13,12,13,24.20
2010,08,13,12,14,24.30
2010,08,13,12,15,24.40
2010,08,13,12,16,24.50
2010,08,13,12,17,24.60
2010,08,13,12,18,24.60
2010,08,13,12,19,24.70
2010,08,13,12,20,24.60
2010,08,13,12,21,24.60
2010,08,13,12,22,24.60
2010,08,13,12,23,24.60
2010,08,13,12,24,24.70
2010,08,13,12,25,24.70
2010,08,13,12,26,24.80
2010,08,13,12,27,24.80
2010,08,13,12,28,24.80
2010,08,13,12,29,24.80
2010,08,13,12,30,24.90
2010,08,13,12,31,25.00
2010,08,13,12,32,25.10
2010,08,13,12,33,25.30
2010,08,13,12,34,25.40
2010,08,13,12,35,25.50
2010,08,13,12,36,25.70
2010,08,13,12,37,25.80
2010,08,13,12,38,25.90
2010,08,13,12,39,25.90
2010,08,13,12,40,25.90
2010,08,13,12,41,26.00
2010,08,13,12,42,26.00
2010,08,13,12,43,26.10
2010,08,13,12,44,26.10
2010,08,13,12,45,26.10
2010,08,13,12,46,26.20
2010,08,13,12,47,26.20
2010,08,13,12,48,26.30
2010,08,13,12,49,26.40
2010,08,13,12,50,26.40
2010,08,13,12,51,26.30
2010,08,13,12,52,26.10
2010,08,13,12,53,25.90
2010,08,13,12,54,25.70
2010,08,13,12,55,25.60
2010,08,13,12,56,25.40
2010,08,13,12,57,25.00
2010,08,13,12,58,24.90
2010,08,13,12,59,24.90
2010,08,13,13,00,24.80
2010,08,13,13,01,24.80
2010,08,13,13,02,24.80
2010,08,13,13,03,24.80
2010,08,13,13,04,24.70
2010,08,13,13,05,24.60
2010,08,13,13,06,24.50
2010,08,13,13,07,24.30
2010,08,13,13,08,24.20
2010,08,13,13,09,24.10
2010,08,13,13,10,24.00
2010,08,13,13,11,23.90
2010,08,13,13,12,23.90
2010,08,13,13,13,24.00
2010,08,13,13,14,24.10
2010,08,13,13,15,24.10
2010,08,13,13,16,24.10
2010,08,13,13,17,24.10
2010,08,13,13,18,24.10
2010,08,13,13,19,24.20
2010,08,13,13,20,24.30
2010,08,13,13,21,24.30
2010,08,13,13,22,24.30
2010,08,13,13,23,24.50
2010,08,13,13,24,24.50
2010,08,13,13,25,24.60
2010,08,13,13,26,24.70
2010,08,13,13,27,24.80
2010,08,13,13,28,24.80
2010,08,13,13,29,24.80
2010,08,13,13,30,24.80
2010,08,13,13,31,24.70
2010,08,13,13,32,24.70
2010,08,13,13,33,24.60
2010,08,13,13,34,24.60
2010,08,13,13,35,24.70
2010,08,13,13,36,24.90
2010,08,13,13,37,25.00
2010,08,13,13,38,25.20
2010,08,13,13,39,25.50
2010,08,13,13,40,25.70
2010,08,13,13,41,25.90
2010,08,13,13,42,26.00
2010,08,13,13,43,26.10
2010,08,13,13,44,26.10
2010,08,13,13,45,26.20
2010,08,13,13,46,26.20
2010,08,13,13,47,26.30
2010,08,13,13,48,26.40
2010,08,13,13,49,26.50
2010,08,13,13,50,26.60
2010,08,13,13,51,26.70
2010,08,13,13,52,26.80
2010,08,13,13,53,26.80
2010,08,13,13,54,26.90
2010,08,13,13,55,27.00
2010,08,13,13,56,27.10
2010,08,13,13,57,27.00
2010,08,13,13,58,26.80
2010,08,13,13,59,26.70
2010,08,13,14,00,26.70
2010,08,13,14,01,26.80
2010,08,13,14,02,27.00
2010,08,13,14,03,27.20
2010,08,13,14,04,27.30
2010,08,13,14,05,27.50
2010,08,13,14,06,27.60
2010,08,13,14,07,27.80
2010,08,13,14,08,28.00
2010,08,13,14,09,28.20
2010,08,13,14,10,28.40
2010,08,13,14,11,28.50
2010,08,13,14,12,28.60
2010,08,13,14,13,28.60
2010,08,13,14,14,28.60
2010,08,13,14,15,28.50
2010,08,13,14,16,28.40
2010,08,13,14,17,28.30
2010,08,13,14,18,28.20
2010,08,13,14,19,28.20
2010,08,13,14,20,28.20
2010,08,13,14,21,28.10
2010,08,13,14,22,28.00
2010,08,13,14,23,27.80
2010,08,13,14,24,27.60
2010,08,13,14,25,27.40
2010,08,13,14,26,27.30
2010,08,13,14,27,27.20
2010,08,13,14,28,27.20
2010,08,13,14,29,27.30
2010,08,13,14,30,27.20
2010,08,13,14,31,27.20
2010,08,13,14,32,27.30
2010,08,13,14,33,27.30
2010,08,13,14,34,27.30
2010,08,13,14,35,27.30
2010,08,13,14,36,27.30
2010,08,13,14,37,27.20
2010,08,13,14,38,27.20
2010,08,13,14,39,27.30
2010,08,13,14,40,27.30
2010,08,13,14,41,27.30
2010,08,13,14,42,27.30
2010,08,13,14,43,27.40
2010,08,13,14,44,27.40
2010,08,13,14,45,27.50
2010,08,13,14,46,27.60
2010,08,13,14,47,27.70
2010,08,13,14,48,27.90
2010,08,13,14,49,28.00
2010,08,13,14,50,28.20
2010,08,13,14,51,28.30
2010,08,13,14,52,28.50
2010,08,13,14,53,28.60
2010,08,13,14,54,28.70
2010,08,13,14,55,28.80
2010,08,13,14,56,28.90
2010,08,13,14,57,29.00
2010,08,13,14,58,29.10
2010,08,13,14,59,29.20
2010,08,13,15,00,29.30
2010,08,13,15,01,29.30
2010,08,13,15,02,29.50
2010,08,13,15,03,29.60
2010,08,13,15,04,29.70
2010,08,13,15,05,29.70
2010,08,13,15,06,29.90
2010,08,13,15,07,30.00
2010,08,13,15,08,30.20
2010,08,13,15,09,30.10
2010,08,13,15,10,30.10
2010,08,13,15,11,30.10
2010,08,13,15,12,30.10
2010,08,13,15,13,30.10
2010,08,13,15,14,30.20
2010,08,13,15,15,30.30
2010,08,13,15,16,30.50
2010,08,13,15,17,30.60
2010,08,13,15,18,30.70
2010,08,13,15,19,30.80
2010,08,13,15,20,30.80
2010,08,13,15,21,30.80
2010,08,13,15,22,30.90
2010,08,13,15,23,30.90
2010,08,13,15,24,30.90
2010,08,13,15,25,30.90
2010,08,13,15,26,30.90
2010,08,13,15,27,30.90
2010,08,13,15,28,30.90
2010,08,13,15,29,30.80
2010,08,13,15,30,30.70
2010,08,13,15,31,30.50
2010,08,13,15,32,30.40
2010,08,13,15,33,30.40
2010,08,13,15,34,30.30
2010,08,13,15,35,30.30
2010,08,13,15,36,30.30
2010,08,13,15,37,30.40
2010,08,13,15,38,30.50
2010,08,13,15,39,30.60
2010,08,13,15,40,30.70
2010,08,13,15,41,30.50
2010,08,13,15,42,30.30
2010,08,13,15,43,30.10
2010,08,13,15,44,29.70
2010,08,13,15,45,29.50
2010,08,13,15,46,29.40
2010,08,13,15,47,29.30
2010,08,13,15,48,29.10
2010,08,13,15,49,28.90
2010,08,13,15,50,28.80
2010,08,13,15,51,28.70
2010,08,13,15,52,28.70
2010,08,13,15,53,28.60
2010,08,13,15,54,28.60
2010,08,13,15,55,28.70
2010,08,13,15,56,28.80
2010,08,13,15,57,29.10
2010,08,13,15,58,29.60
2010,08,13,15,59,30.00
2010,08,13,16,00,30.30
2010,08,13,16,01,30.60
2010,08,13,16,02,30.70
2010,08,13,16,03,30.80
2010,08,13,16,04,30.90
2010,08,13,16,05,31.10
2010,08,13,16,06,31.10
2010,08,13,16,07,31.10
2010,08,13,16,08,31.10
2010,08,13,16,09,31.10
2010,08,13,16,10,31.00
2010,08,13,16,11,31.00
2010,08,13,16,12,30.90
2010,08,13,16,13,30.80
2010,08,13,16,14,30.80
2010,08,13,16,15,30.80
2010,08,13,16,16,30.60
2010,08,13,16,17,30.30
2010,08,13,16,18,29.90
2010,08,13,16,19,29.50
2010,08,13,16,20,29.30
2010,08,13,16,21,29.10
2010,08,13,16,22,29.00
2010,08,13,16,23,28.90
2010,08,13,16,24,28.90
2010,08,13,16,25,28.90
2010,08,13,16,26,28.80
2010,08,13,16,27,28.70
2010,08,13,16,28,28.60
2010,08,13,16,29,28.30
2010,08,13,16,30,28.10
2010,08,13,16,31,28.00
2010,08,13,16,32,27.90
2010,08,13,16,33,27.90
2010,08,13,16,34,27.80
2010,08,13,16,35,27.80
2010,08,13,16,36,27.70
2010,08,13,16,37,27.70
2010,08,13,16,38,27.80
2010,08,13,16,39,27.80
2010,08,13,16,40,27.80
2010,08,13,16,41,27.70
2010,08,13,16,42,27.70
2010,08,13,16,43,27.50
2010,08,13,16,44,27.40
2010,08,13,16,45,27.40
2010,08,13,16,46,27.40
2010,08,13,16,47,27.40
2010,08,13,16,48,27.50
2010,08,13,16,49,27.60
2010,08,13,16,50,27.60
2010,08,13,16,51,27.80
2010,08,13,16,52,27.80
2010,08,13,16,53,27.80
2010,08,13,16,54,27.80
2010,08,13,16,55,27.90
2010,08,13,16,56,27.90
2010,08,13,16,57,28.00
2010,08,13,16,58,28.00
2010,08,13,16,59,28.00
2010,08,13,17,00,27.90
2010,08,13,17,01,27.80
2010,08,13,17,02,27.70
2010,08,13,17,03,27.60
2010,08,13,17,04,27.50
2010,08,13,17,05,27.40
2010,08,13,17,06,27.40
2010,08,13,17,07,27.40
2010,08,13,17,08,27.50
2010,08,13,17,09,27.60
2010,08,13,17,10,27.60
2010,08,13,17,11,27.60
2010,08,13,17,12,27.60
2010,08,13,17,13,27.60
2010,08,13,17,14,27.50
2010,08,13,17,15,27.40
2010,08,13,17,16,27.40
2010,08,13,17,17,27.30
2010,08,13,17,18,27.40
2010,08,13,17,19,27.40
2010,08,13,17,20,27.60
2010,08,13,17,21,27.60
2010,08,13,17,22,27.70
2010,08,13,17,23,27.70
2010,08,13,17,24,27.70
2010,08,13,17,25,27.60
2010,08,13,17,26,27.60
2010,08,13,17,27,27.60